TimePST,TemperatureF,Dew PointF,Humidity,Sea Level PressureIn,VisibilityMPH,Wind Direction,Wind SpeedMPH,Gust SpeedMPH,PrecipitationIn,Events,Conditions,WindDirDegrees,DateUTC
12:53 AM,32.0,30.9,96,30.16,0.5,Calm,Calm,-,N/A,Fog,Fog,0,2013-01-24 08:53:00
1:22 AM,33.8,32.0,93,30.15,1.8,Calm,Calm,-,N/A,,Scattered Clouds,0,2013-01-24 09:22:00
1:25 AM,33.8,32.0,93,30.16,3.0,Calm,Calm,-,N/A,,Mostly Cloudy,0,2013-01-24 09:25:00
1:47 AM,32.0,30.2,93,30.17,1.5,Calm,Calm,-,N/A,,Scattered Clouds,0,2013-01-24 09:47:00
1:53 AM,32.0,30.0,92,30.17,1.0,Calm,Calm,-,N/A,,Scattered Clouds,0,2013-01-24 09:53:00
2:06 AM,33.8,30.2,87,30.17,0.5,East,3.5,-,N/A,Fog,Fog,90,2013-01-24 10:06:00
2:15 AM,33.8,30.2,87,30.17,1.5,East,4.6,-,N/A,,Scattered Clouds,90,2013-01-24 10:15:00
2:20 AM,33.8,32.0,93,30.16,3.0,East,4.6,-,N/A,,Mostly Cloudy,80,2013-01-24 10:20:00
2:53 AM,33.1,30.9,92,30.17,4.0,NE,3.5,-,N/A,,Mostly Cloudy,50,2013-01-24 10:53:00
3:03 AM,32.0,30.2,93,30.17,1.5,Calm,Calm,-,N/A,,Partly Cloudy,0,2013-01-24 11:03:00
3:09 AM,32.0,30.2,93,30.16,0.8,Calm,Calm,-,N/A,,Partly Cloudy,0,2013-01-24 11:09:00
3:18 AM,30.2,30.2,100,30.16,1.2,East,3.5,-,N/A,,Partly Cloudy,80,2013-01-24 11:18:00
3:26 AM,32.0,30.2,93,30.16,2.0,ENE,4.6,-,N/A,,Clear,70,2013-01-24 11:26:00
3:36 AM,32.0,30.2,93,30.16,3.0,Calm,Calm,-,N/A,,Clear,0,2013-01-24 11:36:00
3:53 AM,33.1,30.9,92,30.17,4.0,Calm,Calm,-,N/A,,Clear,0,2013-01-24 11:53:00
4:53 AM,35.1,33.1,92,30.17,5.0,ENE,3.5,-,N/A,,Overcast,70,2013-01-24 12:53:00
5:04 AM,35.6,33.8,93,30.17,5.0,East,3.5,-,N/A,,Overcast,80,2013-01-24 13:04:00
5:15 AM,35.6,33.8,93,30.17,5.0,ENE,4.6,-,N/A,,Overcast,70,2013-01-24 13:15:00
5:49 AM,35.6,33.8,93,30.15,5.0,East,6.9,-,N/A,,Overcast,80,2013-01-24 13:49:00
5:53 AM,35.1,33.1,92,30.16,5.0,East,6.9,-,N/A,,Overcast,80,2013-01-24 13:53:00
6:08 AM,35.6,33.8,93,30.15,5.0,East,8.1,-,N/A,,Scattered Clouds,80,2013-01-24 14:08:00
6:53 AM,35.1,33.1,92,30.15,5.0,East,9.2,-,N/A,,Clear,80,2013-01-24 14:53:00
7:53 AM,34.0,32.0,92,30.13,5.0,East,8.1,-,N/A,,Clear,80,2013-01-24 15:53:00
8:53 AM,35.1,32.0,89,30.12,4.0,East,8.1,-,N/A,,Clear,80,2013-01-24 16:53:00
9:53 AM,36.0,33.1,89,30.12,5.0,ENE,8.1,-,N/A,,Mostly Cloudy,70,2013-01-24 17:53:00
10:53 AM,37.9,35.1,89,30.12,5.0,East,6.9,-,N/A,,Overcast,80,2013-01-24 18:53:00
11:53 AM,39.9,37.0,89,30.08,5.0,Calm,Calm,-,N/A,,Overcast,0,2013-01-24 19:53:00
12:53 PM,39.0,36.0,89,30.05,5.0,East,3.5,-,N/A,,Overcast,80,2013-01-24 20:53:00
1:53 PM,41.0,35.1,79,30.03,3.0,ESE,4.6,-,0.00,Rain,Light Rain,110,2013-01-24 21:53:00
2:19 PM,42.8,35.6,76,30.01,2.5,Variable,6.9,-,0.00,Rain,Light Rain,0,2013-01-24 22:19:00
2:40 PM,42.8,35.6,76,30.01,2.0,Variable,3.5,-,0.01,Rain,Light Rain,0,2013-01-24 22:40:00
2:49 PM,42.8,35.6,76,30.02,1.5,Variable,4.6,-,0.02,Rain,Light Rain,0,2013-01-24 22:49:00
2:53 PM,41.0,36.0,82,30.02,1.5,South,6.9,-,0.03,Rain,Light Rain,170,2013-01-24 22:53:00
2:56 PM,42.8,35.6,76,30.02,1.2,Variable,4.6,-,0.00,Rain,Light Rain,0,2013-01-24 22:56:00
3:11 PM,41.0,37.4,87,30.01,1.5,SSE,8.1,-,0.02,Rain,Light Rain,150,2013-01-24 23:11:00
3:26 PM,41.0,37.4,87,30.01,2.0,SSE,8.1,16.1,0.04,Rain,Light Rain,150,2013-01-24 23:26:00
3:41 PM,41.0,37.4,87,30.01,1.5,SSE,12.7,18.4,0.06,Rain,Light Rain,150,2013-01-24 23:41:00
3:53 PM,42.1,37.9,85,30.01,1.8,SE,9.2,-,0.08,Rain,Light Rain,130,2013-01-24 23:53:00
4:13 PM,42.8,37.4,81,29.99,1.2,SE,10.4,17.3,0.03,Rain,Rain,130,2013-01-25 00:13:00
4:45 PM,42.8,37.4,81,29.99,1.5,SE,9.2,21.9,0.06,Rain,Light Rain,140,2013-01-25 00:45:00
4:53 PM,42.1,37.0,82,30.00,1.5,SE,11.5,20.7,0.07,Rain,Light Rain,140,2013-01-25 00:53:00
5:19 PM,42.8,37.4,81,29.99,2.0,SE,10.4,18.4,0.01,Rain,Light Rain,130,2013-01-25 01:19:00
5:28 PM,42.8,37.4,81,29.99,1.5,SE,10.4,20.7,0.02,Rain,Light Rain,140,2013-01-25 01:28:00
5:38 PM,42.8,37.4,81,29.99,3.0,SE,11.5,18.4,0.02,Rain,Light Rain,130,2013-01-25 01:38:00
5:53 PM,42.1,37.0,82,29.99,4.0,SE,11.5,21.9,0.02,,Haze,140,2013-01-25 01:53:00
6:00 PM,42.8,37.4,81,29.99,5.0,SE,11.5,21.9,N/A,,Haze,140,2013-01-25 02:00:00
6:16 PM,42.8,37.4,81,29.99,4.0,SE,11.5,21.9,N/A,,Haze,140,2013-01-25 02:16:00
6:53 PM,43.0,37.9,82,29.99,3.0,SSE,10.4,24.2,N/A,,Haze,150,2013-01-25 02:53:00
7:53 PM,44.1,39.0,82,29.97,3.0,SSE,10.4,20.7,0.01,Rain,Light Rain,150,2013-01-25 03:53:00
8:06 PM,44.6,39.2,81,29.97,2.0,SSE,8.1,17.3,0.00,Rain,Light Rain,150,2013-01-25 04:06:00
8:19 PM,44.6,39.2,81,29.96,1.8,SSE,12.7,21.9,0.01,Rain,Light Rain,150,2013-01-25 04:19:00
8:45 PM,44.6,39.2,81,29.96,2.0,SE,10.4,21.9,0.01,Rain,Light Rain,140,2013-01-25 04:45:00
8:53 PM,44.1,39.9,85,29.96,2.5,SSE,8.1,21.9,0.01,,Overcast,160,2013-01-25 04:53:00
9:12 PM,44.6,39.2,81,29.96,1.5,SSE,13.8,23.0,0.01,,Haze,150,2013-01-25 05:12:00
9:28 PM,44.6,41.0,87,29.96,2.0,SSE,9.2,18.4,0.01,,Overcast,150,2013-01-25 05:28:00
9:39 PM,44.6,41.0,87,29.95,2.0,SSE,13.8,24.2,0.01,,Overcast,160,2013-01-25 05:39:00
9:47 PM,44.6,41.0,87,29.96,1.8,SSE,10.4,26.5,0.01,,Overcast,150,2013-01-25 05:47:00
9:53 PM,45.0,41.0,86,29.96,1.5,SSE,8.1,18.4,0.01,,Overcast,150,2013-01-25 05:53:00
10:00 PM,44.6,41.0,87,29.96,1.2,SSE,8.1,17.3,0.00,Rain,Light Rain,150,2013-01-25 06:00:00
10:33 PM,46.4,41.0,81,29.96,1.5,SSE,12.7,23.0,0.03,Rain,Light Rain,160,2013-01-25 06:33:00
10:46 PM,46.4,41.0,81,29.96,1.2,SSE,9.2,20.7,0.05,Rain,Light Rain,160,2013-01-25 06:46:00
10:53 PM,46.0,41.0,83,29.96,1.5,SSE,10.4,21.9,0.05,Rain,Light Rain,160,2013-01-25 06:53:00
11:18 PM,46.4,42.8,87,29.96,2.0,South,8.1,21.9,0.02,Rain,Light Rain,170,2013-01-25 07:18:00
11:28 PM,46.4,42.8,87,29.97,1.8,SSE,6.9,20.7,0.02,Rain,Light Rain,160,2013-01-25 07:28:00
11:48 PM,46.4,42.8,87,29.97,1.2,SSE,9.2,21.9,0.03,Rain,Light Rain,150,2013-01-25 07:48:00
11:53 PM,46.0,42.1,86,29.98,1.2,SSE,10.4,20.7,0.03,Rain,Light Rain,150,2013-01-25 07:53:00